1 Minute Report
Date Time Wind Direction Wind Speed Wind Gust Wind Variable Altimeter Temperature Dewpoint Relative Humidity Visibility Ceiling Precip Present Weather Density Alt Wind Chill Heat Index
17/09/13 14:15 000 00 N/A N/A 29.95 61(F), 16(C) 60(F), 16(C) 100% 10 OVC002 P0003 N/A N/A 61 F N/A 21767
17/09/13 14:14 000 00 N/A N/A 29.95 61(F), 16(C) 60(F), 16(C) 100% 10 OVC002 P0003 N/A N/A 61 F N/A 21766
17/09/13 14:13 000 00 N/A N/A 29.95 61(F), 16(C) 60(F), 16(C) 100% 10 OVC002 P0003 N/A N/A 61 F N/A 21765
17/09/13 14:12 000 00 N/A N/A 29.95 60(F), 16(C) 60(F), 16(C) 100% 10 OVC002 P0003 N/A N/A 60 F N/A 21764
17/09/13 14:11 000 00 N/A N/A 29.95 60(F), 16(C) 60(F), 16(C) 100% 7 OVC002 P0003 N/A N/A 60 F N/A 21763
17/09/13 14:10 000 00 N/A N/A 29.95 60(F), 16(C) 59(F), 15(C) 94% 7 OVC002 P0003 N/A N/A 60 F N/A 21762
17/09/13 14:09 000 00 N/A N/A 29.95 60(F), 16(C) 59(F), 15(C) 94% 7 OVC002 P0003 N/A N/A 60 F N/A 21761
17/09/13 14:08 000 00 N/A N/A 29.95 60(F), 16(C) 59(F), 15(C) 94% 7 OVC002 P0003 N/A N/A 60 F N/A 21760
17/09/13 14:07 000 00 N/A N/A 29.95 60(F), 16(C) 59(F), 15(C) 94% 7 OVC002 P0003 N/A N/A 60 F N/A 21759
17/09/13 14:06 000 00 N/A N/A 29.95 59(F), 15(C) 59(F), 15(C) 100% 5 OVC002 P0003 Mist N/A 59 F N/A 21758
17/09/13 14:05 000 00 N/A N/A 29.95 60(F), 16(C) 59(F), 15(C) 94% 4 OVC002 P0003 Mist N/A 60 F N/A 21757
17/09/13 14:04 000 00 N/A N/A 29.95 60(F), 16(C) 59(F), 15(C) 94% 4 OVC002 P0003 Mist N/A 60 F N/A 21756
17/09/13 14:03 000 00 N/A N/A 29.95 59(F), 15(C) 59(F), 15(C) 100% 4 OVC002 P0003 Mist N/A 59 F N/A 21755
17/09/13 14:02 000 00 N/A N/A 29.95 59(F), 15(C) 58(F), 14(C) 94% 4 OVC002 P0003 Mist N/A 59 F N/A 21754
17/09/13 14:01 000 00 N/A N/A 29.95 59(F), 15(C) 58(F), 14(C) 94% 4 OVC002 P0003 Mist N/A 59 F N/A 21753
17/09/13 14:00 000 00 N/A N/A 29.95 58(F), 14(C) 57(F), 14(C) 100% 3 OVC002 N/A Mist N/A 58 F N/A 21752
17/09/13 13:59 000 00 N/A N/A 29.95 58(F), 14(C) 57(F), 14(C) 100% 3 OVC002 N/A Mist N/A 58 F N/A 21751
17/09/13 13:58 000 00 N/A N/A 29.95 58(F), 14(C) 57(F), 14(C) 100% 3 OVC002 N/A Mist N/A 58 F N/A 21750
17/09/13 13:57 000 00 N/A N/A 29.95 58(F), 14(C) 57(F), 14(C) 100% 3 OVC002 N/A Mist N/A 58 F N/A 21749
17/09/13 13:56 000 00 N/A N/A 29.95 58(F), 14(C) 57(F), 14(C) 100% 2 1/2 OVC002 N/A Mist N/A 58 F N/A 21748
17/09/13 13:55 000 00 N/A N/A 29.96 57(F), 14(C) 57(F), 14(C) 100% 3 OVC002 N/A Mist N/A 57 F N/A 21747
17/09/13 13:54 000 00 N/A N/A 29.96 57(F), 14(C) 57(F), 14(C) 100% 3 OVC002 N/A Mist N/A 57 F N/A 21746
17/09/13 13:53 000 00 N/A N/A 29.96 57(F), 14(C) 57(F), 14(C) 100% 3 OVC002 N/A Mist N/A 57 F N/A 21745
17/09/13 13:52 000 00 N/A N/A 29.96 57(F), 14(C) 57(F), 14(C) 100% 3 OVC002 N/A Mist N/A 57 F N/A 21744
17/09/13 13:51 000 00 N/A N/A 29.95 57(F), 14(C) 57(F), 14(C) 100% 3 OVC002 N/A Mist N/A 57 F N/A 21743
17/09/13 13:50 000 00 N/A N/A 29.95 57(F), 14(C) 57(F), 14(C) 100% 3 OVC002 N/A Mist N/A 57 F N/A 21742
17/09/13 13:49 000 00 N/A N/A 29.95 57(F), 14(C) 57(F), 14(C) 100% 3 OVC002 N/A Mist N/A 57 F N/A 21741
17/09/13 13:48 000 00 N/A N/A 29.96 57(F), 14(C) 57(F), 14(C) 100% 2 1/2 OVC002 N/A Mist N/A 57 F N/A 21740
17/09/13 13:47 000 00 N/A N/A 29.96 57(F), 14(C) 57(F), 14(C) 100% 2 1/2 OVC002 N/A Mist N/A 57 F N/A 21739
17/09/13 13:46 000 00 N/A N/A 29.96 57(F), 14(C) 57(F), 14(C) 100% 2 1/2 OVC002 N/A Mist N/A 57 F N/A 21738
17/09/13 13:45 000 00 N/A N/A 29.96 57(F), 14(C) 57(F), 14(C) 100% 2 1/2 OVC002 N/A Mist N/A 57 F N/A 21737
17/09/13 13:44 190 03 N/A N/A 29.96 57(F), 14(C) 57(F), 14(C) 100% 2 1/2 OVC002 N/A Mist N/A 57 F N/A 21736
17/09/13 13:43 190 03 N/A N/A 29.96 57(F), 14(C) 57(F), 14(C) 100% 2 1/2 OVC002 N/A Mist N/A 57 F N/A 21735
17/09/13 13:42 190 03 N/A N/A 29.96 57(F), 14(C) 56(F), 13(C) 94% 2 1/2 OVC002 N/A Mist N/A 57 F N/A 21734
17/09/13 13:41 000 00 N/A N/A 29.96 57(F), 14(C) 56(F), 13(C) 94% 2 1/2 OVC002 N/A Mist N/A 57 F N/A 21733
17/09/13 13:40 000 00 N/A N/A 29.95 57(F), 14(C) 56(F), 13(C) 94% 2 1/2 OVC002 N/A Mist N/A 57 F N/A 21732
17/09/13 13:39 000 00 N/A N/A 29.95 57(F), 14(C) 56(F), 13(C) 94% 2 1/2 OVC002 N/A Mist N/A 57 F N/A 21731
17/09/13 13:38 000 00 N/A N/A 29.95 57(F), 14(C) 56(F), 13(C) 94% 3 OVC002 N/A Mist N/A 57 F N/A 21730
17/09/13 13:37 000 00 N/A N/A 29.95 57(F), 14(C) 56(F), 13(C) 94% 3 OVC002 N/A Mist N/A 57 F N/A 21729
17/09/13 13:36 000 00 N/A N/A 29.95 57(F), 14(C) 56(F), 13(C) 94% 3 OVC002 N/A Mist N/A 57 F N/A 21728
17/09/13 13:35 000 00 N/A N/A 29.95 57(F), 14(C) 56(F), 13(C) 94% 2 1/2 OVC002 N/A Mist N/A 57 F N/A 21727
17/09/13 13:34 000 00 N/A N/A 29.95 57(F), 14(C) 56(F), 13(C) 94% 2 1/2 OVC002 N/A Mist N/A 57 F N/A 21726
17/09/13 13:33 000 00 N/A N/A 29.96 57(F), 14(C) 56(F), 13(C) 94% 2 1/2 OVC002 N/A Mist N/A 57 F N/A 21725
17/09/13 13:32 000 00 N/A N/A 29.96 57(F), 14(C) 57(F), 14(C) 100% 2 OVC002 N/A Mist N/A 57 F N/A 21724
17/09/13 13:31 200 03 N/A N/A 29.96 57(F), 14(C) 56(F), 13(C) 94% 2 OVC002 N/A Mist N/A 57 F N/A 21723
17/09/13 13:30 000 00 N/A N/A 29.95 57(F), 14(C) 56(F), 13(C) 94% 2 OVC002 N/A Mist N/A 57 F N/A 21722
17/09/13 13:29 000 00 N/A N/A 29.95 57(F), 14(C) 56(F), 13(C) 94% 2 OVC002 N/A Mist N/A 57 F N/A 21721
17/09/13 13:28 000 00 N/A N/A 29.95 57(F), 14(C) 56(F), 13(C) 94% 2 OVC002 N/A Mist N/A 57 F N/A 21720
17/09/13 13:27 000 00 N/A N/A 29.95 57(F), 14(C) 56(F), 13(C) 94% 1 3/4 OVC002 N/A Mist N/A 57 F N/A 21719
17/09/13 13:26 000 00 N/A N/A 29.96 57(F), 14(C) 56(F), 13(C) 94% 1 3/4 OVC002 N/A Mist N/A 57 F N/A 21718
17/09/13 13:25 000 00 N/A N/A 29.96 57(F), 14(C) 57(F), 14(C) 100% 1 3/4 OVC002 N/A Mist N/A 57 F N/A 21717
17/09/13 13:24 000 00 N/A N/A 29.96 57(F), 14(C) 57(F), 14(C) 100% 1 3/4 OVC002 N/A Mist N/A 57 F N/A 21716
17/09/13 13:23 000 00 N/A N/A 29.96 57(F), 14(C) 57(F), 14(C) 100% 1 3/4 OVC002 N/A Mist N/A 57 F N/A 21715
17/09/13 13:22 000 00 N/A N/A 29.96 57(F), 14(C) 57(F), 14(C) 100% 1 1/2 OVC002 N/A Mist N/A 57 F N/A 21714
17/09/13 13:21 000 00 N/A N/A 29.96 57(F), 14(C) 56(F), 13(C) 94% 1 1/4 OVC002 N/A Mist N/A 57 F N/A 21713
17/09/13 13:20 000 00 N/A N/A 29.96 57(F), 14(C) 56(F), 13(C) 94% 3/4 OVC002 N/A Mist N/A 57 F N/A 21712
17/09/13 13:19 000 00 N/A N/A 29.96 57(F), 14(C) 56(F), 13(C) 94% 3/4 OVC002 N/A Mist N/A 57 F N/A 21711
17/09/13 13:18 000 00 N/A N/A 29.96 57(F), 14(C) 56(F), 13(C) 94% 3/4 OVC002 N/A Mist N/A 57 F N/A 21710
17/09/13 13:17 000 00 N/A N/A 29.96 56(F), 13(C) 56(F), 13(C) 100% 3/4 OVC002 N/A Mist N/A 56 F N/A 21709
17/09/13 13:16 000 00 N/A N/A 29.96 56(F), 13(C) 56(F), 13(C) 100% 3/4 OVC002 N/A Mist N/A 56 F N/A 21708
17/09/13 13:15 000 00 N/A N/A 29.96 56(F), 13(C) 56(F), 13(C) 100% 1/2 OVC002 N/A Fog N/A 56 F N/A 21707
17/09/13 13:14 000 00 N/A N/A 29.96 56(F), 13(C) 56(F), 13(C) 100% 1/2 OVC002 N/A Fog N/A 56 F N/A 21706
17/09/13 13:13 000 00 N/A N/A 29.96 56(F), 13(C) 55(F), 13(C) 100% 1/2 OVC002 N/A Fog N/A 56 F N/A 21705
17/09/13 13:12 000 00 N/A N/A 29.96 56(F), 13(C) 56(F), 13(C) 100% 1/2 OVC002 N/A Fog N/A 56 F N/A 21704
17/09/13 13:11 000 00 N/A N/A 29.96 56(F), 13(C) 56(F), 13(C) 100% 1/2 OVC002 N/A Fog N/A 56 F N/A 21703
17/09/13 13:10 000 00 N/A N/A 29.96 56(F), 13(C) 56(F), 13(C) 100% 1/2 OVC002 N/A Fog N/A 56 F N/A 21702
17/09/13 13:09 000 00 N/A N/A 29.96 56(F), 13(C) 56(F), 13(C) 100% 1/2 OVC002 N/A Fog N/A 56 F N/A 21701
17/09/13 13:08 000 00 N/A N/A 29.96 56(F), 13(C) 56(F), 13(C) 100% 1/2 OVC002 N/A Fog N/A 56 F N/A 21700
17/09/13 13:07 000 00 N/A N/A 29.96 56(F), 13(C) 56(F), 13(C) 100% 1/2 OVC002 N/A Fog N/A 56 F N/A 21699
17/09/13 13:06 000 00 N/A N/A 29.96 56(F), 13(C) 55(F), 13(C) 100% 1/2 OVC002 N/A Fog N/A 56 F N/A 21698
17/09/13 13:05 000 00 N/A N/A 29.96 56(F), 13(C) 55(F), 13(C) 100% 1/2 OVC002 N/A Fog N/A 56 F N/A 21697
17/09/13 13:04 000 00 N/A N/A 29.96 56(F), 13(C) 55(F), 13(C) 100% 1/2 OVC002 N/A Fog N/A 56 F N/A 21696
17/09/13 13:03 000 00 N/A N/A 29.96 56(F), 13(C) 55(F), 13(C) 100% 1/2 OVC002 N/A Fog N/A 56 F N/A 21695
17/09/13 13:02 000 00 N/A N/A 29.96 56(F), 13(C) 55(F), 13(C) 100% 1/2 OVC002 N/A Fog N/A 56 F N/A 21694
17/09/13 13:01 000 00 N/A N/A 29.96 56(F), 13(C) 55(F), 13(C) 100% 1/2 OVC002 N/A Fog N/A 56 F N/A 21693
17/09/13 13:00 000 00 N/A N/A 29.96 56(F), 13(C) 55(F), 13(C) 100% 1/2 OVC002 N/A Fog N/A 56 F N/A 21692
17/09/13 12:59 000 00 N/A N/A 29.96 56(F), 13(C) 55(F), 13(C) 100% 1/2 OVC002 N/A Fog N/A 56 F N/A 21691
17/09/13 12:58 000 00 N/A N/A 29.96 56(F), 13(C) 55(F), 13(C) 100% 1/2 OVC002 N/A Fog N/A 56 F N/A 21690
17/09/13 12:57 000 00 N/A N/A 29.96 56(F), 13(C) 55(F), 13(C) 100% 1/2 OVC002 N/A Fog N/A 56 F N/A 21689
17/09/13 12:56 000 00 N/A N/A 29.96 56(F), 13(C) 55(F), 13(C) 100% 1/2 OVC002 N/A Fog N/A 56 F N/A 21688
17/09/13 12:55 000 00 N/A N/A 29.96 55(F), 13(C) 55(F), 13(C) 100% 1/4 OVC002 N/A Fog N/A 55 F N/A 21687
17/09/13 12:54 000 00 N/A N/A 29.96 55(F), 13(C) 55(F), 13(C) 100% 1/4 OVC002 N/A Fog N/A 55 F N/A 21686
17/09/13 12:53 000 00 N/A N/A 29.96 55(F), 13(C) 55(F), 13(C) 100% 1/4 OVC002 N/A Fog N/A 55 F N/A 21685
17/09/13 12:52 000 00 N/A N/A 29.96 55(F), 13(C) 55(F), 13(C) 100% M1/4 OVC002 N/A Fog N/A 55 F N/A 21684
17/09/13 12:51 000 00 N/A N/A 29.96 55(F), 13(C) 55(F), 13(C) 100% M1/4 OVC002 N/A Fog N/A 55 F N/A 21683
17/09/13 12:50 000 00 N/A N/A 29.96 55(F), 13(C) 55(F), 13(C) 100% M1/4 OVC002 N/A Fog N/A 55 F N/A 21682
17/09/13 12:49 000 00 N/A N/A 29.96 55(F), 13(C) 55(F), 13(C) 100% M1/4 OVC002 N/A Fog N/A 55 F N/A 21681
17/09/13 12:48 000 00 N/A N/A 29.96 55(F), 13(C) 55(F), 13(C) 100% M1/4 OVC002 N/A Fog N/A 55 F N/A 21680
17/09/13 12:47 000 00 N/A N/A 29.96 55(F), 13(C) 54(F), 12(C) 94% M1/4 OVC002 N/A Fog N/A 55 F N/A 21679
17/09/13 12:46 000 00 N/A N/A 29.96 55(F), 13(C) 54(F), 12(C) 94% M1/4 OVC002 N/A Fog N/A 55 F N/A 21678
17/09/13 12:45 000 00 N/A N/A 29.96 55(F), 13(C) 54(F), 12(C) 94% 1/4 OVC002 N/A Fog N/A 55 F N/A 21677
17/09/13 12:44 000 00 N/A N/A 29.96 55(F), 13(C) 54(F), 12(C) 94% 1/4 OVC002 N/A Fog N/A 55 F N/A 21676
17/09/13 12:43 000 00 N/A N/A 29.95 55(F), 13(C) 54(F), 12(C) 94% 1/4 OVC002 N/A Fog N/A 55 F N/A 21675
17/09/13 12:42 000 00 N/A N/A 29.95 55(F), 13(C) 54(F), 12(C) 94% 1/4 OVC002 N/A Fog N/A 55 F N/A 21674
17/09/13 12:41 000 00 N/A N/A 29.95 55(F), 13(C) 54(F), 12(C) 94% 1/4 OVC002 N/A Fog N/A 55 F N/A 21673
17/09/13 12:40 000 00 N/A N/A 29.95 55(F), 13(C) 54(F), 12(C) 94% 1/4 OVC002 N/A Fog N/A 55 F N/A 21672
17/09/13 12:39 000 00 N/A N/A 29.95 55(F), 13(C) 54(F), 12(C) 94% 1/4 OVC002 N/A Fog N/A 55 F N/A 21671
17/09/13 12:38 000 00 N/A N/A 29.95 55(F), 13(C) 54(F), 12(C) 94% 1/4 OVC002 N/A Fog N/A 55 F N/A 21670
17/09/13 12:37 000 00 N/A N/A 29.95 55(F), 13(C) 54(F), 12(C) 94% 1/4 OVC002 N/A Fog N/A 55 F N/A 21669
17/09/13 12:36 000 00 N/A N/A 29.95 55(F), 13(C) 54(F), 12(C) 94% 1/4 OVC002 N/A Fog N/A 55 F N/A 21668
17/09/13 12:35 000 00 N/A N/A 29.96 55(F), 13(C) 54(F), 12(C) 94% 1/4 OVC002 N/A Fog N/A 55 F N/A 21667
17/09/13 12:34 000 00 N/A N/A 29.96 55(F), 13(C) 54(F), 12(C) 94% 1/4 OVC002 N/A Fog N/A 55 F N/A 21666
17/09/13 12:33 000 00 N/A N/A 29.96 55(F), 13(C) 54(F), 12(C) 94% 1/4 OVC002 N/A Fog N/A 55 F N/A 21665
17/09/13 12:32 000 00 N/A N/A 29.96 55(F), 13(C) 54(F), 12(C) 94% 1/4 OVC002 N/A Fog N/A 55 F N/A 21664
17/09/13 12:31 000 00 N/A N/A 29.96 54(F), 12(C) 54(F), 12(C) 100% 1/4 OVC002 N/A Fog N/A 54 F N/A 21663
17/09/13 12:30 000 00 N/A N/A 29.96 54(F), 12(C) 54(F), 12(C) 100% 1/4 OVC002 N/A Fog N/A 54 F N/A 21662
17/09/13 12:29 000 00 N/A N/A 29.96 54(F), 12(C) 54(F), 12(C) 100% 1/4 OVC002 N/A Fog N/A 54 F N/A 21661
17/09/13 12:28 000 00 N/A N/A 29.96 54(F), 12(C) 54(F), 12(C) 100% 1/4 OVC002 N/A Fog N/A 54 F N/A 21660
17/09/13 12:27 000 00 N/A N/A 29.96 54(F), 12(C) 54(F), 12(C) 100% 1/4 OVC002 N/A Fog N/A 54 F N/A 21659
17/09/13 12:26 000 00 N/A N/A 29.96 54(F), 12(C) 54(F), 12(C) 100% 1/4 OVC002 N/A Fog N/A 54 F N/A 21658
17/09/13 12:25 000 00 N/A N/A 29.96 54(F), 12(C) 54(F), 12(C) 100% 1/4 OVC002 N/A Fog N/A 54 F N/A 21657
17/09/13 12:24 000 00 N/A N/A 29.96 54(F), 12(C) 54(F), 12(C) 100% 1/4 OVC002 N/A Fog N/A 54 F N/A 21656
17/09/13 12:23 000 00 N/A N/A 29.96 54(F), 12(C) 54(F), 12(C) 100% 1/4 OVC002 N/A Fog N/A 54 F N/A 21655
17/09/13 12:22 000 00 N/A N/A 29.96 54(F), 12(C) 54(F), 12(C) 100% 1/4 OVC002 N/A Fog N/A 54 F N/A 21654
17/09/13 12:21 000 00 N/A N/A 29.96 54(F), 12(C) 54(F), 12(C) 100% M1/4 OVC002 N/A Fog N/A 54 F N/A 21653
17/09/13 12:20 000 00 N/A N/A 29.95 54(F), 12(C) 54(F), 12(C) 100% M1/4 OVC002 N/A Fog N/A 54 F N/A 21652
17/09/13 12:19 000 00 N/A N/A 29.95 54(F), 12(C) 54(F), 12(C) 100% M1/4 OVC002 N/A Fog N/A 54 F N/A 21651
17/09/13 12:18 000 00 N/A N/A 29.95 54(F), 12(C) 54(F), 12(C) 100% M1/4 OVC002 N/A Fog N/A 54 F N/A 21650
17/09/13 12:17 000 00 N/A N/A 29.95 54(F), 12(C) 54(F), 12(C) 100% M1/4 OVC002 N/A Fog N/A 54 F N/A 21649
17/09/13 12:16 000 00 N/A N/A 29.95 54(F), 12(C) 54(F), 12(C) 100% M1/4 OVC002 N/A Fog N/A 54 F N/A 21648
17/09/13 12:15 000 00 N/A N/A 29.95 54(F), 12(C) 54(F), 12(C) 100% M1/4 OVC002 N/A Fog N/A 54 F N/A 21647